JBU1418 KRDU-KJFK

Flight info

Callsign JBU1418
Flight time 1h 8m
Altitude 37000
Route HURIC4 FEBEL GUILD SAWED Q108 SIE CAMRN5
Aircraft A320/M-SDE3FGHIRWY/LB1

Departure

Time 2026-05-08 18:54
Airport Raleigh-Durham International Airport (KRDU)

Arrival

Time 2026-05-08 20:02
Airport John F. Kennedy International Airport (KJFK)
Time Latitude Longitude Altitude Speed Heading
2026-05-08 18:17 35.87779 -78.79380 392 ft 0 kts 135°
2026-05-08 18:46 35.87793 -78.79395 392 ft 4 kts 146°
2026-05-08 18:46 35.87817 -78.79409 392 ft 4 kts 172°
2026-05-08 18:46 35.87842 -78.79407 392 ft 4 kts 207°
2026-05-08 18:46 35.87856 -78.79396 392 ft 0 kts 225°
2026-05-08 18:49 35.87849 -78.79405 392 ft 2 kts 225°
2026-05-08 18:49 35.87830 -78.79428 392 ft 5 kts 225°
2026-05-08 18:49 35.87801 -78.79465 392 ft 7 kts 225°
2026-05-08 18:50 35.87761 -78.79514 392 ft 9 kts 225°
2026-05-08 18:50 35.87712 -78.79576 392 ft 11 kts 225°
2026-05-08 18:50 35.87653 -78.79649 391 ft 13 kts 225°
2026-05-08 18:50 35.87583 -78.79735 391 ft 15 kts 225°
2026-05-08 18:51 35.87508 -78.79826 391 ft 15 kts 225°
2026-05-08 18:51 35.87431 -78.79920 391 ft 17 kts 225°
2026-05-08 18:51 35.87355 -78.80023 392 ft 15 kts 248°
2026-05-08 18:51 35.87371 -78.80084 392 ft 0 kts 316°
2026-05-08 18:52 35.87374 -78.80088 392 ft 2 kts 316°
2026-05-08 18:52 35.87387 -78.80103 392 ft 4 kts 316°
2026-05-08 18:52 35.87417 -78.80139 392 ft 7 kts 316°
2026-05-08 18:52 35.87461 -78.80170 392 ft 8 kts
2026-05-08 18:53 35.87518 -78.80107 391 ft 21 kts 45°
2026-05-08 18:53 35.87791 -78.79776 392 ft 88 kts 44°
2026-05-08 18:53 35.88357 -78.79078 391 ft 140 kts 44°
2026-05-08 18:53 35.89136 -78.78105 561 ft 166 kts 45°
2026-05-08 18:54 35.89941 -78.77068 1086 ft 172 kts 44°
2026-05-08 18:54 35.90797 -78.75974 1631 ft 179 kts 43°
2026-05-08 18:54 35.91667 -78.74871 2128 ft 185 kts 43°
2026-05-08 18:54 35.92586 -78.73715 2645 ft 193 kts 43°
2026-05-08 18:55 35.94577 -78.71013 3387 ft 237 kts 53°
2026-05-08 18:55 35.95600 -78.69305 3812 ft 256 kts 41°
2026-05-08 18:55 35.96921 -78.67777 4573 ft 265 kts 49°
2026-05-08 18:56 35.97635 -78.65666 5379 ft 276 kts 83°
2026-05-08 18:56 35.97428 -78.63281 6248 ft 283 kts 101°
2026-05-08 18:56 35.96904 -78.60923 7093 ft 287 kts 104°
2026-05-08 18:56 35.96322 -78.58560 7924 ft 290 kts 104°
2026-05-08 18:57 35.95771 -78.56156 8718 ft 293 kts 102°
2026-05-08 18:57 35.95437 -78.54534 9205 ft 296 kts 101°
2026-05-08 18:57 35.94826 -78.51175 10131 ft 304 kts 99°
2026-05-08 18:57 35.94406 -78.48603 10812 ft 309 kts 99°
2026-05-08 18:58 35.93999 -78.45967 11479 ft 315 kts 99°
2026-05-08 18:58 35.93597 -78.43288 12140 ft 320 kts 99°
2026-05-08 18:58 35.93190 -78.40572 12780 ft 325 kts 100°
2026-05-08 18:58 35.92774 -78.37814 13429 ft 329 kts 101°
2026-05-08 18:59 35.92349 -78.35027 14069 ft 332 kts 102°
2026-05-08 18:59 35.92057 -78.32184 14720 ft 336 kts 94°
2026-05-08 18:59 35.92115 -78.29253 15061 ft 352 kts 85°
2026-05-08 18:59 35.92411 -78.26163 15191 ft 372 kts 84°
2026-05-08 19:00 35.92729 -78.22926 15414 ft 387 kts 84°
2026-05-08 19:00 35.93055 -78.19602 15902 ft 393 kts 85°
2026-05-08 19:00 35.93382 -78.16239 16482 ft 396 kts 85°
2026-05-08 19:00 35.93705 -78.12871 17101 ft 397 kts 86°
2026-05-08 19:01 35.94029 -78.09477 17731 ft 398 kts 86°
2026-05-08 19:01 35.94353 -78.06080 18387 ft 399 kts 87°
2026-05-08 19:01 35.94674 -78.02683 19073 ft 399 kts 87°
2026-05-08 19:01 35.94990 -77.99290 19785 ft 398 kts 88°
2026-05-08 19:02 35.95308 -77.95902 20498 ft 396 kts 88°
2026-05-08 19:02 35.95706 -77.92534 21168 ft 398 kts 81°
2026-05-08 19:02 35.96536 -77.89267 21793 ft 402 kts 71°
2026-05-08 19:02 35.97847 -77.86202 22412 ft 406 kts 61°
2026-05-08 19:03 35.99443 -77.83322 23009 ft 405 kts 60°
2026-05-08 19:03 36.01035 -77.80460 23588 ft 404 kts 59°
2026-05-08 19:03 36.02617 -77.77605 24151 ft 402 kts 59°
2026-05-08 19:03 36.04191 -77.74753 24678 ft 401 kts 59°
2026-05-08 19:04 36.05756 -77.71905 25170 ft 400 kts 58°
2026-05-08 19:04 36.07319 -77.69056 25628 ft 400 kts 58°
2026-05-08 19:04 36.08878 -77.66212 26073 ft 400 kts 58°
2026-05-08 19:04 36.10444 -77.63358 26484 ft 401 kts 57°
2026-05-08 19:05 36.12010 -77.60497 26887 ft 402 kts 57°
2026-05-08 19:05 36.13581 -77.57630 27260 ft 403 kts 56°
2026-05-08 19:05 36.15156 -77.54757 27619 ft 405 kts 56°
2026-05-08 19:05 36.16740 -77.51865 27959 ft 407 kts 55°
2026-05-08 19:06 36.18334 -77.48955 28286 ft 409 kts 55°
2026-05-08 19:06 36.19931 -77.46034 28595 ft 411 kts 54°
2026-05-08 19:06 36.21538 -77.43091 28902 ft 413 kts 54°
2026-05-08 19:06 36.23148 -77.40135 29190 ft 415 kts 54°
2026-05-08 19:07 36.24768 -77.37157 29493 ft 417 kts 54°
2026-05-08 19:07 36.26393 -77.34172 29822 ft 418 kts 54°
2026-05-08 19:07 36.28016 -77.31188 30239 ft 417 kts 54°
2026-05-08 19:07 36.29631 -77.28211 30645 ft 416 kts 54°
2026-05-08 19:08 36.31327 -77.25312 31034 ft 414 kts 48°
2026-05-08 19:08 36.33351 -77.22783 31413 ft 413 kts 41°
2026-05-08 19:08 36.35490 -77.20410 31801 ft 412 kts 41°
2026-05-08 19:08 36.37620 -77.18040 32180 ft 411 kts 41°
2026-05-08 19:09 36.39747 -77.15666 32561 ft 411 kts 42°
2026-05-08 19:09 36.41840 -77.13320 32933 ft 410 kts 42°
2026-05-08 19:09 36.43959 -77.10943 33304 ft 410 kts 42°
2026-05-08 19:09 36.46094 -77.08547 33683 ft 409 kts 42°
2026-05-08 19:10 36.48176 -77.06208 34051 ft 408 kts 42°
2026-05-08 19:10 36.50276 -77.03847 34402 ft 407 kts 42°
2026-05-08 19:10 36.52409 -77.01450 34741 ft 407 kts 42°
2026-05-08 19:10 36.54503 -76.99097 35057 ft 406 kts 42°
2026-05-08 19:11 36.56597 -76.96741 35369 ft 405 kts 42°
2026-05-08 19:11 36.58656 -76.94422 35669 ft 405 kts 42°
2026-05-08 19:11 36.60741 -76.92072 35955 ft 404 kts 42°
2026-05-08 19:11 36.62825 -76.89723 36230 ft 404 kts 42°
2026-05-08 19:12 36.64906 -76.87379 36484 ft 404 kts 42°
2026-05-08 19:12 36.66989 -76.85028 36690 ft 404 kts 42°
2026-05-08 19:12 36.69074 -76.82670 36751 ft 407 kts 42°
2026-05-08 19:13 36.73284 -76.77901 36758 ft 410 kts 42°
2026-05-08 19:13 36.77498 -76.73119 36755 ft 410 kts 42°
2026-05-08 19:14 36.81717 -76.68321 36755 ft 410 kts 42°
2026-05-08 19:14 36.85927 -76.63532 36758 ft 410 kts 42°
2026-05-08 19:15 36.90133 -76.58739 36757 ft 410 kts 42°
2026-05-08 19:15 36.94349 -76.53930 36761 ft 410 kts 42°
2026-05-08 19:16 36.98559 -76.49121 36763 ft 410 kts 42°
2026-05-08 19:16 37.02771 -76.44293 36765 ft 411 kts 42°
2026-05-08 19:17 37.06993 -76.39464 36767 ft 411 kts 42°
2026-05-08 19:17 37.11203 -76.34635 36768 ft 411 kts 42°
2026-05-08 19:18 37.15411 -76.29787 36769 ft 411 kts 42°
2026-05-08 19:18 37.19620 -76.24945 36770 ft 411 kts 42°
2026-05-08 19:19 37.23114 -76.20914 36769 ft 411 kts 42°
2026-05-08 19:19 37.27318 -76.16057 36772 ft 411 kts 42°
2026-05-08 19:20 37.31514 -76.11195 36768 ft 410 kts 42°
2026-05-08 19:20 37.35711 -76.06332 36767 ft 410 kts 42°
2026-05-08 19:21 37.39912 -76.01463 36771 ft 410 kts 42°
2026-05-08 19:21 37.44103 -75.96592 36766 ft 410 kts 42°
2026-05-08 19:22 37.48296 -75.91714 36766 ft 410 kts 43°
2026-05-08 19:22 37.52491 -75.86835 36766 ft 410 kts 40°
2026-05-08 19:23 37.57242 -75.82886 36765 ft 410 kts 31°
2026-05-08 19:23 37.62153 -75.79222 36762 ft 410 kts 31°
2026-05-08 19:24 37.67063 -75.75547 36762 ft 410 kts 31°
2026-05-08 19:24 37.71972 -75.71859 36761 ft 410 kts 31°
2026-05-08 19:25 37.76873 -75.68174 36759 ft 410 kts 31°
2026-05-08 19:25 37.81775 -75.64478 36761 ft 410 kts 32°
2026-05-08 19:26 37.86635 -75.60691 36759 ft 410 kts 34°
2026-05-08 19:26 37.91330 -75.56601 36761 ft 410 kts 36°
2026-05-08 19:27 37.95983 -75.52426 36758 ft 410 kts 36°
2026-05-08 19:27 38.00658 -75.48296 36758 ft 410 kts 35°
2026-05-08 19:28 38.05329 -75.44225 36758 ft 410 kts 34°
2026-05-08 19:28 38.10136 -75.40231 36759 ft 410 kts 33°
2026-05-08 19:29 38.14932 -75.36390 36762 ft 410 kts 33°
2026-05-08 19:29 38.19751 -75.32502 36760 ft 410 kts 33°
2026-05-08 19:30 38.24666 -75.28827 36760 ft 411 kts 24°
2026-05-08 19:30 38.30224 -75.27047 36759 ft 414 kts 12°
2026-05-08 19:31 38.35914 -75.25862 36758 ft 415 kts 12°
2026-05-08 19:31 38.41619 -75.24663 36759 ft 415 kts 12°
2026-05-08 19:32 38.47319 -75.23460 36761 ft 415 kts 12°
2026-05-08 19:32 38.53024 -75.22253 36763 ft 415 kts 12°
2026-05-08 19:33 38.58725 -75.21050 36765 ft 416 kts 12°
2026-05-08 19:33 38.64434 -75.19852 36766 ft 416 kts 12°
2026-05-08 19:34 38.70011 -75.18087 36765 ft 412 kts 25°
2026-05-08 19:34 38.74835 -75.14222 36765 ft 410 kts 38°
2026-05-08 19:35 38.79368 -75.09783 36764 ft 410 kts 38°
2026-05-08 19:35 38.83904 -75.05344 36765 ft 410 kts 37°
2026-05-08 19:36 38.88439 -75.00894 36765 ft 410 kts 38°
2026-05-08 19:36 38.92940 -74.96462 36767 ft 411 kts 38°
2026-05-08 19:37 38.97469 -74.91984 36768 ft 411 kts 38°
2026-05-08 19:37 39.01999 -74.87510 36768 ft 411 kts 38°
2026-05-08 19:38 39.06529 -74.83031 36770 ft 411 kts 38°
2026-05-08 19:38 39.11045 -74.78524 36644 ft 411 kts 39°
2026-05-08 19:38 39.13256 -74.76197 36389 ft 410 kts 40°
2026-05-08 19:39 39.15435 -74.73828 36145 ft 410 kts 40°
2026-05-08 19:39 39.17604 -74.71437 35795 ft 409 kts 40°
2026-05-08 19:39 39.19764 -74.69055 35150 ft 410 kts 40°
2026-05-08 19:39 39.21942 -74.66664 34430 ft 412 kts 40°
2026-05-08 19:40 39.24137 -74.64268 33668 ft 414 kts 40°
2026-05-08 19:40 39.26351 -74.61866 32876 ft 417 kts 40°
2026-05-08 19:40 39.28585 -74.59452 32071 ft 419 kts 40°
2026-05-08 19:40 39.30780 -74.57079 31611 ft 413 kts 40°
2026-05-08 19:41 39.32969 -74.54708 31098 ft 409 kts 40°
2026-05-08 19:41 39.35129 -74.52359 30581 ft 404 kts 40°
2026-05-08 19:41 39.37273 -74.50025 30079 ft 400 kts 40°
2026-05-08 19:41 39.39388 -74.47723 29567 ft 396 kts 40°
2026-05-08 19:42 39.41485 -74.45441 29059 ft 392 kts 40°
2026-05-08 19:42 39.43563 -74.43179 28501 ft 389 kts 40°
2026-05-08 19:42 39.45628 -74.40927 27968 ft 386 kts 40°
2026-05-08 19:42 39.47672 -74.38695 27437 ft 383 kts 41°
2026-05-08 19:43 39.49703 -74.36475 26908 ft 381 kts 42°
2026-05-08 19:43 39.51715 -74.34272 26388 ft 378 kts 43°
2026-05-08 19:43 39.53723 -74.32070 25875 ft 376 kts 43°
2026-05-08 19:43 39.55715 -74.29882 25373 ft 375 kts 44°
2026-05-08 19:44 39.57704 -74.27700 24883 ft 374 kts 44°
2026-05-08 19:44 39.59688 -74.25524 24405 ft 374 kts 45°
2026-05-08 19:44 39.61674 -74.23344 23931 ft 373 kts 45°
2026-05-08 19:44 39.63653 -74.21169 23479 ft 372 kts 45°
2026-05-08 19:45 39.65622 -74.19000 23028 ft 371 kts 45°
2026-05-08 19:45 39.67587 -74.16833 22580 ft 370 kts 45°
2026-05-08 19:45 39.69544 -74.14678 22137 ft 368 kts 45°
2026-05-08 19:45 39.71493 -74.12534 21671 ft 367 kts 45°
2026-05-08 19:46 39.73437 -74.10392 21214 ft 366 kts 45°
2026-05-08 19:46 39.75374 -74.08251 20738 ft 366 kts 45°
2026-05-08 19:46 39.79248 -74.03960 19768 ft 366 kts 44°
2026-05-08 19:47 39.81191 -74.01804 19269 ft 367 kts 44°
2026-05-08 19:47 39.83139 -73.99651 18759 ft 369 kts 41°
2026-05-08 19:47 39.85270 -73.97760 18242 ft 373 kts 30°
2026-05-08 19:47 39.87558 -73.96153 17717 ft 374 kts 29°
2026-05-08 19:48 39.89843 -73.94542 17225 ft 374 kts 28°
2026-05-08 19:48 39.92139 -73.92914 16702 ft 376 kts 28°
2026-05-08 19:48 39.94416 -73.91266 16251 ft 374 kts 28°
2026-05-08 19:48 39.96676 -73.89600 15800 ft 372 kts 28°
2026-05-08 19:49 39.98909 -73.87924 15348 ft 365 kts 28°
2026-05-08 19:49 40.01057 -73.86283 14921 ft 351 kts 28°
2026-05-08 19:49 40.03135 -73.84669 14452 ft 348 kts 28°
2026-05-08 19:49 40.05213 -73.83036 13901 ft 348 kts 28°
2026-05-08 19:50 40.07239 -73.81419 13555 ft 332 kts 28°
2026-05-08 19:50 40.09174 -73.79855 13313 ft 322 kts 28°
2026-05-08 19:50 40.11048 -73.78328 12792 ft 315 kts 28°
2026-05-08 19:50 40.12897 -73.76811 12371 ft 312 kts 28°
2026-05-08 19:51 40.14730 -73.75302 11996 ft 313 kts 28°
2026-05-08 19:51 40.16573 -73.73784 11543 ft 313 kts 28°
2026-05-08 19:51 40.18390 -73.72286 11099 ft 306 kts 28°
2026-05-08 19:51 40.20189 -73.70806 10668 ft 306 kts 28°
2026-05-08 19:52 40.21972 -73.69344 10241 ft 296 kts 28°
2026-05-08 19:52 40.23617 -73.67998 9833 ft 287 kts 28°
2026-05-08 19:52 40.25345 -73.66588 9392 ft 277 kts 28°
2026-05-08 19:52 40.26959 -73.65281 8967 ft 269 kts 28°
2026-05-08 19:53 40.28537 -73.64013 8538 ft 263 kts 28°
2026-05-08 19:53 40.30079 -73.62787 8118 ft 257 kts 28°
2026-05-08 19:53 40.31596 -73.61595 7685 ft 251 kts 28°
2026-05-08 19:53 40.33082 -73.60438 7259 ft 245 kts 28°
2026-05-08 19:54 40.34534 -73.59308 6836 ft 240 kts 28°
2026-05-08 19:54 40.35961 -73.58197 6413 ft 239 kts 28°
2026-05-08 19:54 40.37407 -73.57074 5988 ft 244 kts 28°
2026-05-08 19:54 40.38883 -73.55931 5561 ft 249 kts 28°
2026-05-08 19:55 40.40376 -73.54776 5133 ft 250 kts 28°
2026-05-08 19:55 40.41895 -73.53678 4704 ft 248 kts 18°
2026-05-08 19:55 40.43575 -73.53336 4270 ft 244 kts 360°
2026-05-08 19:55 40.45250 -73.53357 3849 ft 238 kts 358°
2026-05-08 19:56 40.46886 -73.53415 3423 ft 232 kts 357°
2026-05-08 19:56 40.48485 -73.53476 3021 ft 231 kts 357°
2026-05-08 19:56 40.50081 -73.53634 2672 ft 230 kts 344°
2026-05-08 19:56 40.51519 -73.54523 2354 ft 228 kts 329°
2026-05-08 19:57 40.52841 -73.55613 2191 ft 221 kts 327°
2026-05-08 19:57 40.54109 -73.56688 2036 ft 213 kts 327°
2026-05-08 19:57 40.55324 -73.57721 1897 ft 201 kts 327°
2026-05-08 19:57 40.56420 -73.58713 1834 ft 186 kts 317°
2026-05-08 19:58 40.57161 -73.60065 1786 ft 182 kts 302°
2026-05-08 19:58 40.57805 -73.61487 1786 ft 180 kts 302°
2026-05-08 19:58 40.58426 -73.62856 1773 ft 162 kts 302°
2026-05-08 19:58 40.58964 -73.64038 1793 ft 145 kts 303°
2026-05-08 19:59 40.59472 -73.65152 1791 ft 140 kts 303°
2026-05-08 19:59 40.59967 -73.66239 1698 ft 138 kts 303°
2026-05-08 19:59 40.60457 -73.67314 1553 ft 136 kts 303°
2026-05-08 19:59 40.60942 -73.68381 1384 ft 136 kts 303°
2026-05-08 20:00 40.61428 -73.69447 1216 ft 136 kts 302°
2026-05-08 20:00 40.61800 -73.70262 1081 ft 135 kts 303°
2026-05-08 20:00 40.62304 -73.71307 844 ft 135 kts 303°
2026-05-08 20:00 40.62770 -73.72381 671 ft 135 kts 305°
2026-05-08 20:01 40.63232 -73.73465 471 ft 136 kts 304°
2026-05-08 20:01 40.63735 -73.74513 306 ft 135 kts 303°
2026-05-08 20:01 40.64212 -73.75589 164 ft 136 kts 303°
2026-05-08 20:01 40.64700 -73.76651 32 ft 133 kts 302°
2026-05-08 20:02 40.65109 -73.77532 17 ft 88 kts 300°
2026-05-08 20:02 40.65312 -73.78004 18 ft 28 kts 278°
2026-05-08 20:02 40.65281 -73.78152 17 ft 11 kts 191°
2026-05-08 20:02 40.65246 -73.78132 17 ft 7 kts 136°
2026-05-08 20:03 40.65236 -73.78115 17 ft 2 kts 127°
2026-05-08 20:03 40.65219 -73.78079 16 ft 4 kts 120°
2026-05-08 20:03 40.65208 -73.78054 16 ft 5 kts 120°
2026-05-08 20:03 40.65191 -73.78014 16 ft 5 kts 119°
2026-05-08 20:04 40.65170 -73.77967 16 ft 6 kts 121°
2026-05-08 20:04 40.65143 -73.77906 16 ft 9 kts 120°
2026-05-08 20:04 40.65110 -73.77833 16 ft 10 kts 120°
2026-05-08 20:04 40.65073 -73.77754 17 ft 11 kts 121°
2026-05-08 20:05 40.65033 -73.77668 16 ft 11 kts 121°
2026-05-08 20:05 40.64993 -73.77578 16 ft 12 kts 120°
2026-05-08 20:05 40.64951 -73.77483 16 ft 12 kts 120°
2026-05-08 20:05 40.64905 -73.77383 18 ft 13 kts 121°
2026-05-08 20:06 40.64859 -73.77280 17 ft 13 kts 120°
2026-05-08 20:06 40.64812 -73.77173 17 ft 14 kts 120°
2026-05-08 20:06 40.64757 -73.77062 17 ft 15 kts 132°
2026-05-08 20:06 40.64667 -73.76992 16 ft 16 kts 162°
2026-05-08 20:07 40.64557 -73.76977 16 ft 16 kts 182°
2026-05-08 20:07 40.64446 -73.76999 16 ft 16 kts 211°
2026-05-08 20:07 40.64436 -73.77132 17 ft 16 kts 285°
2026-05-08 20:07 40.64457 -73.77215 16 ft 5 kts 292°
2026-05-08 20:08 40.64480 -73.77238 16 ft 4 kts 352°
2026-05-08 20:08 40.64514 -73.77238 16 ft 5 kts
2026-05-08 20:08 40.64534 -73.77238 16 ft 2 kts
2026-05-08 20:08 40.64537 -73.77238 16 ft 0 kts